Temperature
28 28 28 28 27 27 26 27 27 27 27 28 27 27 25 24 22 22 20 19 19 18 17 16 16 15 14 13 13 12 11 11 11 10 10 10 9 9 9 9 9 8 8 8
27 28 28 27 27 28 27 27 27 27 27 28 26 25 24 23 22 22 21 20 19 18 17 16 15 15 14 13 12 12 11 11 11 10 10 10 9 9 9 9 8 8 8 8
26 27 27 26 28 28 27 27 27 27 27 27 26 25 24 23 22 22 21 20 19 18 17 16 15 15 14 13 12 11 11 11 11 10 10 10 9 9 9 9 9 8 8 8
26 26 25 27 28 28 27 28 28 27 27 27 26 25 23 23 22 22 21 20 19 18 17 16 15 14 13 13 12 12 11 11 11 10 10 10 9 9 9 9 9 8 8 8
26 26 26 27 27 27 27 27 28 27 27 26 24 24 24 22 22 21 20 19 18 18 17 16 15 14 13 13 12 12 12 11 11 10 10 9 9 9 9 9 9 9 8 8
25 25 25 27 27 26 27 26 28 27 27 25 24 26 26 23 21 20 20 19 18 17 16 16 15 14 13 13 12 12 11 11 10 10 10 9 9 9 9 9 9 9 8 8
25 25 26 27 26 26 25 26 26 26 26 25 25 25 24 22 21 20 19 18 18 17 16 16 15 14 13 13 12 12 11 11 10 10 10 9 9 9 9 9 9 9 8 8
25 24 25 26 26 26 25 25 25 25 25 25 24 23 22 22 21 20 19 18 17 17 16 15 15 14 13 13 12 11 11 10 10 10 10 10 9 9 9 9 9 9 9 8
25 25 25 25 25 24 23 24 24 24 24 24 24 23 22 21 20 19 19 18 17 17 16 15 15 14 13 13 12 11 11 11 10 10 10 9 9 9 9 9 9 9 9 9
24 26 25 24 23 23 22 22 23 23 23 23 23 22 22 21 20 19 18 18 17 16 16 15 15 14 13 13 12 12 11 11 10 10 10 10 9 9 9 9 9 9 9 9
24 24 24 24 22 22 21 22 22 22 22 22 22 22 21 20 19 19 18 17 17 16 16 15 14 14 13 13 12 12 11 11 10 10 10 10 9 9 9 9 9 9 8 8
23 22 22 22 21 20 21 21 21 21 21 21 21 20 20 19 19 18 18 17 17 16 16 15 14 14 13 13 12 12 11 11 11 10 10 10 10 10 10 9 9 9 9 9
19 19 19 19 19 20 20 20 20 20 20 20 19 19 19 19 18 18 17 17 16 16 15 15 14 14 13 13 12 12 11 11 10 10 10 10 10 10 10 10 10 9 9 9
17 18 19 19 19 18 19 19 19 19 19 19 18 18 18 18 17 17 17 16 16 15 15 14 14 14 13 12 12 12 11 11 10 10 10 10 10 10 9 10 10 10 9 9
17 17 17 17 17 18 18 18 18 18 18 17 17 17 17 17 17 16 16 16 15 15 15 14 14 13 13 12 12 11 11 11 10 10 10 10 10 10 10 9 9 9 9 9
17 17 17 17 17 17 17 17 17 17 17 16 16 16 16 16 16 16 15 15 15 15 14 14 13 13 13 12 12 11 11 11 11 10 10 10 10 10 10 9 9 9 9 9
16 16 16 16 16 16 16 16 16 15 15 15 15 15 15 15 15 15 15 14 14 14 14 13 13 13 12 12 12 11 11 11 10 10 10 10 10 9 9 9 9 9 9 9
14 14 14 14 15 15 15 14 14 14 14 14 14 15 14 14 14 14 14 14 14 14 13 13 13 12 12 12 11 11 11 10 10 10 10 10 9 9 9 9 9 9 9 9
14 14 14 14 14 14 14 14 14 14 14 14 14 14 13 13 13 13 13 13 13 13 13 12 12 12 12 11 11 11 10 10 10 10 9 9 9 9 9 9 9 9 9 9
13 13 13 13 13 13 13 13 13 13 13 13 13 13 12 12 12 12 12 12 12 12 12 11 11 11 11 11 11 10 10 10 9 9 9 9 9 9 9 9 9 9 9 9
12 12 13 13 12 12 12 12 12 12 12 12 12 12 12 12 12 12 12 12 12 11 11 11 11 11 11 10 10 10 10 9 9 9 9 9 9 9 9 9 9 9 9 9
12 12 12 12 12 12 11 11 11 11 11 11 11 11 11 11 11 11 11 11 11 10 10 10 10 10 10 10 9 9 9 9 9 9 8 8 8 8 8 8 9 8 8 8
12 11 11 11 11 11 11 11 11 11 11 10 10 10 10 10 10 10 11 11 10 10 10 9 10 10 10 9 9 9 9 8 8 8 8 8 8 8 8 8 8 8 8 8
11 11 11 11 11 11 11 11 10 10 10 10 10 10 10 10 10 10 10 9 9 9 9 9 9 9 9 8 8 8 8 8 8 8 7 7 8 8 7 7 7 8 8 8
10 10 10 10 10 11 10 10 10 10 10 10 10 10 10 9 9 9 9 9 9 8 8 8 8 8 8 8 8 8 7 7 7 7 7 7 7 7 7 7 7 7 7 8
10 10 10 10 10 10 10 10 10 10 10 10 10 10 9 9 9 9 9 8 8 8 8 8 8 7 7 7 7 7 7 6 6 6 6 6 7 7 7 7 7 7 7 7
10 10 10 10 10 10 10 10 10 10 9 9 9 9 9 9 8 8 8 8 8 8 7 7 7 7 7 6 6 6 6 6 6 6 6 6 6 6 6 7 7 7 7 7
Wind_Speed
8 7 7 8 8 9 11 11 10 8 7 5 3 7 8 10 10 10 10 10 9 7 6 5 4 3 3 3 4 4 6 7 8 8 9 9 10 10 10 10 11 11 11 12
10 9 9 11 12 12 12 12 11 10 9 2 2 4 8 10 10 10 10 10 9 7 6 5 4 4 3 4 4 5 6 7 8 8 9 9 10 10 10 11 11 11 11 12
11 7 8 11 9 9 9 9 9 9 4 2 4 6 8 9 10 10 9 9 8 7 6 5 4 4 4 4 4 5 7 8 8 9 9 10 11 11 11 11 11 11 11 12
9 7 9 3 1 4 6 7 7 6 3 3 3 4 5 7 9 9 9 8 7 6 6 5 4 4 4 4 5 6 7 8 8 9 10 10 11 11 10 10 11 11 12 12
8 9 8 4 3 4 5 5 5 6 4 3 3 4 6 7 8 8 8 7 6 6 5 5 5 4 4 5 6 6 7 8 8 9 10 10 11 11 10 10 11 11 11 12
7 8 6 1 5 3 4 5 3 5 5 6 7 6 2 8 9 8 8 7 6 6 6 5 4 4 5 6 6 7 7 8 8 9 10 11 11 11 11 10 11 12 12 12
10 9 5 3 5 5 4 2 3 3 5 8 7 4 3 7 8 9 9 8 7 7 6 5 4 4 5 6 7 7 7 8 9 9 10 10 10 10 11 11 11 12 12 11
6 8 3 5 4 3 5 5 3 3 5 7 7 5 5 7 8 9 9 9 8 7 6 5 5 5 6 7 7 7 7 8 9 9 10 9 10 10 10 11 11 11 10 11
3 2 4 2 3 5 6 7 6 5 5 6 8 8 8 8 8 9 9 8 8 7 6 6 6 6 7 6 6 7 8 9 9 10 9 9 10 10 10 9 9 10 9 10
4 2 2 2 4 6 7 8 8 6 6 6 8 8 8 7 8 8 8 8 8 7 7 6 6 7 7 7 6 7 9 9 9 9 10 9 8 9 9 9 10 10 10 10
6 5 5 3 8 10 9 7 6 5 3 5 6 7 7 7 7 7 7 6 7 7 7 7 6 7 7 7 7 8 9 9 9 9 9 9 9 8 10 9 9 10 10 10
5 6 7 8 10 11 10 7 5 4 2 2 3 4 5 5 5 5 6 6 6 7 7 7 7 7 7 7 7 8 9 9 8 8 8 8 9 10 8 10 10 12 14 13
5 8 8 8 9 9 8 6 5 4 3 2 1 1 2 2 3 4 4 6 6 7 7 7 7 8 8 7 8 9 9 9 9 9 9 9 9 10 10 9 11 14 15 15
4 3 3 6 7 9 8 7 6 5 5 4 3 2 1 0 1 2 3 4 5 6 6 7 7 8 7 7 8 9 10 9 9 9 9 9 9 9 9 10 11 9 8 13
6 5 5 6 8 9 9 8 7 8 7 7 6 4 3 2 2 2 2 3 4 5 6 7 8 8 7 8 9 10 9 8 8 8 9 9 9 10 9 11 10 10 10 6
6 8 9 10 11 11 11 11 9 9 8 8 7 6 4 3 3 3 3 3 4 6 6 7 8 8 7 8 9 9 9 9 9 9 10 9 9 9 9 10 10 9 9 9
9 10 11 12 12 12 12 11 10 9 9 8 8 7 6 5 4 4 4 4 5 6 6 7 8 8 8 9 10 9 9 8 9 9 10 9 9 9 9 10 10 9 9 7
9 10 10 10 10 10 11 11 11 10 10 9 8 8 7 7 6 7 7 6 6 7 7 8 8 9 9 9 8 8 8 8 8 8 8 8 8 9 10 10 10 10 9 7
9 9 10 10 9 9 9 10 10 10 10 10 10 9 9 8 8 8 8 8 8 9 8 8 7 9 9 8 7 8 9 9 8 8 8 8 9 9 9 9 9 9 9 9
8 8 8 9 9 9 9 9 10 10 10 10 10 10 11 11 10 10 9 9 8 8 9 9 8 8 8 8 7 9 9 9 9 8 8 8 8 8 8 8 9 9 8 8
6 7 8 8 8 9 9 9 9 10 10 10 10 11 11 11 11 10 10 9 9 9 9 8 7 7 7 6 7 9 8 8 8 8 8 8 8 8 8 8 8 8 7 7
5 6 7 8 8 9 9 8 9 9 10 10 11 11 12 12 12 11 10 9 9 8 8 9 8 7 6 6 7 8 8 8 8 7 7 7 7 7 7 8 8 7 7 7
5 6 7 8 9 9 9 8 8 9 10 10 11 11 12 12 11 11 11 9 10 9 9 10 7 5 5 7 8 7 7 7 7 7 6 6 6 7 7 8 7 7 6 6
6 7 8 9 9 9 9 9 9 9 10 10 10 10 11 11 11 10 11 10 10 10 11 7 4 5 7 7 7 6 6 6 6 6 6 6 6 6 6 6 7 6 6 6
8 9 9 10 10 9 9 10 10 10 11 10 11 11 10 10 11 11 12 13 11 10 10 7 4 6 7 6 6 6 6 5 4 5 5 5 5 5 5 5 5 6 5 5
9 9 9 9 9 9 10 10 10 10 11 11 11 11 11 11 12 11 10 11 12 10 9 8 7 6 6 6 5 5 5 4 4 5 5 5 5 5 5 5 6 5 5 4
10 10 9 9 10 9 9 10 10 11 12 12 12 12 12 12 12 12 13 11 11 10 9 8 7 6 6 5 4 4 4 3 3 3 4 4 4 4 4 5 4 4 4 4
Wind_Direction
275 280 270 269 262 238 240 264 279 288 289 292 235 212 197 188 186 185 185 188 191 196 197 201 213 231 259 280 289 296 297 300 304 305 305 303 304 303 303 301 299 298 295 290
266 262 263 265 264 258 249 256 263 272 279 298 180 192 186 188 191 195 195 194 195 199 200 208 221 240 262 275 286 290 293 299 305 305 304 305 305 305 303 301 302 300 296 293
267 264 265 261 255 251 244 240 251 263 285 141 189 195 199 198 201 204 200 195 197 201 203 210 220 232 257 273 280 285 291 299 304 304 304 307 308 307 305 304 303 301 297 294
263 262 258 283 82 265 257 254 249 264 259 218 217 198 203 204 205 205 199 196 196 199 200 204 210 222 248 268 275 284 293 300 304 305 305 307 306 305 304 302 302 300 298 296
256 254 257 243 200 222 241 261 235 239 231 183 163 191 206 199 203 204 198 195 192 195 196 197 210 225 250 268 278 287 296 302 305 307 305 304 304 305 305 303 301 299 298 296
243 258 261 160 120 159 245 250 170 200 204 182 187 242 207 165 187 194 190 186 187 187 191 198 209 223 252 269 281 291 300 302 303 302 300 300 301 302 302 300 297 298 299 298
241 248 256 74 135 179 244 15 84 208 209 194 208 260 110 152 176 187 189 188 188 192 199 204 206 220 252 271 282 294 299 297 296 297 297 295 296 295 297 297 299 298 297 296
235 242 251 86 161 227 348 1 326 269 234 215 217 204 177 177 183 189 192 195 196 199 205 205 209 225 252 268 281 290 292 291 293 295 296 299 297 295 294 295 294 294 296 299
267 313 49 22 315 325 329 308 299 286 263 232 226 220 209 199 197 198 200 201 203 205 210 212 214 229 253 268 278 284 286 287 292 295 293 292 294 295 295 293 294 301 305 307
263 255 342 343 334 330 318 305 300 287 263 237 229 225 217 208 202 202 203 203 205 210 218 222 223 232 249 262 267 273 279 285 289 289 289 293 294 293 298 302 302 304 305 306
261 293 307 327 358 347 336 325 314 301 270 241 231 225 216 208 202 201 200 202 204 212 224 233 232 236 245 252 258 267 276 282 285 286 289 293 289 291 292 294 300 297 302 305
295 347 322 323 340 342 340 340 336 327 314 271 241 234 223 214 204 200 200 198 206 216 226 235 237 240 242 244 247 261 273 279 285 289 293 292 295 295 259 252 261 251 252 266
307 315 317 318 332 346 351 359 8 14 12 2 335 269 232 223 208 201 202 206 213 222 231 235 240 246 246 241 242 253 268 279 284 288 291 290 293 298 303 283 245 242 241 242
341 329 355 5 3 7 6 11 27 38 39 34 32 24 0 300 224 224 230 235 235 238 242 244 248 252 250 242 241 250 262 269 268 277 283 287 289 293 297 299 303 302 259 230
38 43 40 25 22 23 21 26 34 35 34 31 29 24 17 0 323 291 276 263 253 250 252 254 255 258 252 244 244 251 260 267 272 281 282 282 285 288 291 293 295 300 306 284
64 61 55 46 37 32 31 30 29 25 25 24 21 12 360 342 325 313 294 273 262 260 262 262 262 264 256 248 248 250 251 247 254 274 280 281 282 287 291 295 299 301 303 307
67 56 46 40 36 32 31 27 24 19 17 15 8 1 351 342 332 319 308 296 278 274 272 270 271 271 260 248 248 256 262 253 223 255 270 279 286 290 292 294 296 300 301 307
65 57 49 39 31 27 24 22 20 17 11 5 359 358 352 345 334 325 321 309 295 285 281 278 276 273 262 251 248 257 261 265 266 268 277 281 288 290 288 289 295 300 303 302
60 50 42 34 26 22 18 13 9 6 3 359 355 352 347 340 334 326 319 309 300 294 298 296 280 266 260 250 246 248 255 261 266 269 274 276 276 281 286 290 294 300 307 313
47 37 31 26 21 16 10 3 358 356 355 351 348 344 340 337 333 325 317 305 303 312 318 311 296 277 267 255 238 253 253 255 261 269 273 279 285 290 291 291 293 300 307 312
27 16 11 9 5 3 359 353 347 344 345 344 341 337 335 333 332 329 321 314 324 330 318 301 287 285 277 270 234 254 257 256 260 266 273 280 286 290 291 292 295 300 305 310
3 357 354 351 347 344 343 339 338 337 338 337 336 335 332 329 327 322 313 313 321 336 320 309 302 310 307 285 261 258 259 260 262 266 271 278 286 292 294 298 298 302 306 311
337 336 333 332 329 325 322 325 330 331 332 332 331 332 331 327 322 318 315 324 323 329 315 308 323 325 289 271 265 260 260 261 265 270 277 284 288 291 296 301 302 305 311 316
308 311 313 313 311 307 309 317 320 320 320 318 321 328 326 322 321 321 321 322 321 320 313 321 309 280 266 269 268 266 264 266 269 273 278 285 291 296 300 304 307 309 314 316
295 298 299 300 297 299 304 304 304 306 307 314 317 320 321 322 320 321 318 318 323 314 315 316 276 265 274 281 276 272 268 272 278 283 282 288 293 296 301 307 310 311 315 317
285 287 293 293 295 295 296 300 304 308 310 311 313 317 319 320 318 315 313 315 317 316 312 313 310 294 294 291 283 276 275 273 267 268 282 290 291 299 307 314 315 317 320 322
278 278 275 277 280 284 291 296 299 302 305 306 310 313 314 314 315 315 313 311 312 313 313 310 308 303 304 307 301 290 285 283 284 287 287 288 293 300 305 308 309 315 318 323
Height
1482 1479 1481 1483 1483 1484 1488 1487 1489 1485 1483 1481 1483 1487 1491 1495 1499 1502 1505 1507 1509 1511 1512 1512 1513 1513 1512 1512 1511 1509 1508 1507 1505 1503 1500 1498 1495 1493 1490 1487 1485 1482 1479 1477
1484 1479 1479 1482 1480 1479 1480 1481 1482 1482 1481 1478 1483 1487 1490 1493 1497 1499 1502 1504 1506 1508 1509 1509 1510 1510 1509 1509 1508 1506 1505 1504 1502 1499 1497 1495 1492 1490 1487 1484 1481 1478 1475 1473
1486 1477 1481 1484 1475 1474 1475 1475 1477 1479 1477 1479 1483 1486 1488 1491 1494 1496 1499 1501 1503 1505 1506 1506 1507 1506 1506 1506 1504 1503 1502 1501 1499 1496 1494 1491 1489 1486 1483 1480 1477 1474 1471 1468
1482 1484 1497 1475 1468 1470 1472 1471 1472 1473 1475 1479 1481 1484 1487 1489 1492 1494 1496 1498 1500 1502 1503 1503 1503 1503 1503 1502 1501 1500 1499 1498 1496 1493 1490 1488 1485 1482 1479 1476 1473 1470 1467 1464
1481 1484 1480 1469 1468 1470 1473 1472 1469 1472 1474 1478 1482 1484 1484 1487 1489 1491 1494 1496 1498 1499 1500 1500 1500 1500 1500 1499 1499 1498 1496 1494 1492 1489 1486 1484 1481 1478 1475 1472 1469 1466 1463 1459
1480 1486 1487 1471 1467 1470 1473 1474 1468 1471 1473 1477 1480 1478 1478 1483 1486 1489 1491 1493 1494 1496 1496 1497 1497 1497 1496 1496 1496 1495 1493 1491 1488 1485 1483 1480 1477 1474 1471 1468 1465 1462 1459 1455
1479 1481 1471 1464 1469 1472 1479 1475 1470 1471 1472 1475 1476 1477 1479 1481 1484 1486 1488 1490 1491 1492 1493 1494 1494 1493 1493 1493 1492 1491 1489 1487 1484 1482 1479 1476 1473 1470 1467 1464 1461 1457 1454 1450
1476 1481 1478 1469 1468 1470 1472 1471 1471 1471 1472 1473 1475 1476 1478 1480 1481 1483 1485 1487 1488 1489 1490 1490 1490 1490 1490 1489 1488 1487 1485 1483 1480 1478 1475 1473 1469 1466 1463 1460 1457 1453 1450 1447
1470 1472 1471 1470 1471 1472 1473 1472 1471 1471 1471 1472 1473 1474 1476 1477 1479 1481 1482 1484 1485 1486 1487 1487 1487 1486 1486 1486 1484 1483 1481 1479 1476 1474 1471 1469 1466 1463 1460 1457 1454 1450 1447 1443
1470 1466 1469 1471 1472 1472 1471 1471 1470 1469 1469 1469 1470 1471 1473 1474 1476 1477 1479 1480 1481 1482 1483 1483 1483 1483 1482 1481 1480 1478 1477 1475 1472 1470 1467 1465 1462 1459 1457 1454 1450 1447 1444 1440
1469 1468 1469 1469 1471 1471 1469 1468 1468 1467 1467 1467 1467 1468 1469 1471 1472 1473 1475 1476 1477 1478 1478 1479 1479 1479 1478 1477 1476 1474 1473 1471 1469 1466 1464 1461 1458 1455 1452 1449 1447 1443 1440 1436
1469 1472 1473 1472 1472 1470 1468 1467 1466 1465 1465 1465 1465 1466 1467 1468 1469 1470 1471 1472 1473 1474 1475 1475 1475 1474 1473 1472 1471 1470 1469 1467 1465 1463 1460 1457 1454 1451 1448 1445 1441 1438 1434 1431
1476 1475 1474 1473 1471 1470 1468 1466 1465 1464 1464 1463 1464 1464 1465 1466 1466 1467 1467 1468 1469 1470 1470 1470 1470 1470 1469 1468 1467 1465 1464 1463 1461 1459 1456 1453 1450 1447 1444 1441 1437 1433 1430 1427
1475 1474 1473 1472 1471 1470 1468 1466 1465 1464 1463 1463 1463 1463 1464 1464 1464 1465 1465 1466 1466 1466 1466 1466 1465 1464 1464 1463 1462 1461 1460 1458 1456 1454 1451 1449 1446 1443 1440 1436 1433 1430 1427 1423
1476 1475 1474 1473 1471 1469 1468 1467 1465 1464 1464 1464 1463 1463 1463 1463 1463 1463 1463 1463 1462 1462 1462 1461 1461 1460 1459 1458 1457 1456 1455 1453 1452 1449 1447 1444 1441 1439 1436 1432 1429 1426 1422 1419
1476 1475 1474 1473 1471 1470 1468 1467 1466 1466 1465 1464 1463 1462 1462 1461 1461 1461 1460 1459 1458 1458 1457 1457 1456 1455 1454 1453 1451 1450 1449 1447 1445 1444 1442 1439 1437 1435 1432 1428 1425 1422 1418 1415
1477 1476 1475 1474 1473 1471 1470 1469 1468 1467 1466 1464 1463 1462 1461 1460 1459 1458 1457 1456 1455 1454 1453 1451 1450 1449 1448 1447 1446 1445 1444 1443 1440 1438 1437 1435 1432 1430 1427 1424 1421 1418 1415 1411
1478 1478 1477 1476 1475 1473 1472 1470 1469 1467 1466 1465 1463 1461 1460 1458 1457 1456 1454 1452 1450 1449 1448 1446 1445 1444 1443 1441 1440 1440 1439 1438 1436 1434 1432 1430 1428 1425 1423 1420 1417 1414 1411 1408
1479 1479 1477 1476 1475 1474 1473 1471 1470 1468 1466 1464 1463 1461 1459 1457 1455 1453 1451 1449 1447 1445 1444 1442 1440 1438 1437 1436 1435 1433 1433 1432 1431 1429 1427 1425 1423 1420 1418 1416 1413 1410 1407 1404
1479 1479 1478 1477 1476 1475 1473 1471 1469 1468 1466 1464 1461 1459 1457 1455 1453 1450 1448 1446 1444 1442 1440 1438 1435 1433 1432 1430 1429 1428 1427 1426 1425 1424 1422 1420 1419 1416 1414 1411 1409 1407 1404 1401
1479 1478 1477 1476 1475 1474 1472 1470 1468 1466 1464 1462 1460 1458 1455 1453 1450 1448 1445 1443 1441 1438 1435 1433 1431 1429 1427 1426 1424 1423 1422 1421 1420 1418 1417 1416 1414 1412 1410 1408 1406 1403 1401 1398
1478 1477 1476 1475 1474 1472 1471 1469 1467 1465 1462 1460 1458 1456 1453 1450 1448 1445 1442 1440 1437 1434 1431 1429 1427 1425 1422 1420 1419 1418 1417 1416 1415 1414 1412 1411 1409 1408 1406 1404 1402 1400 1398 1395
1477 1476 1475 1473 1472 1470 1468 1467 1465 1463 1460 1458 1456 1453 1450 1447 1445 1442 1439 1436 1433 1430 1427 1424 1422 1419 1417 1415 1414 1413 1412 1411 1410 1409 1408 1407 1405 1404 1403 1401 1399 1397 1395 1393
1474 1473 1472 1471 1469 1467 1466 1464 1462 1460 1458 1455 1453 1450 1447 1444 1441 1438 1435 1432 1429 1425 1422 1419 1416 1414 1411 1410 1409 1408 1407 1406 1406 1405 1404 1403 1402 1401 1399 1397 1396 1394 1392 1390
1471 1470 1469 1467 1466 1464 1462 1460 1458 1456 1454 1452 1450 1447 1444 1441 1438 1435 1431 1428 1425 1421 1418 1415 1412 1409 1407 1406 1405 1403 1403 1402 1401 1400 1400 1399 1398 1397 1396 1394 1392 1391 1390 1389
1468 1467 1465 1464 1462 1460 1459 1457 1455 1452 1450 1448 1445 1443 1441 1438 1434 1431 1427 1424 1421 1418 1414 1411 1408 1406 1404 1402 1401 1399 1398 1397 1397 1396 1396 1395 1394 1393 1392 1391 1390 1389 1388 1387
1463 1462 1460 1459 1457 1456 1454 1452 1450 1448 1446 1444 1441 1439 1436 1433 1430 1427 1423 1420 1417 1414 1411 1408 1405 1402 1400 1398 1396 1395 1394 1393 1393 1392 1392 1391 1391 1390 1389 1388 1387 1387 1386 1385